Torna al catalogo

DMSP 5D-2 F13 DEB

AttivoSSO
NORAD 40610·DEBRIS·🇺🇸 United States

Lanciato Mar 24, 1995 da Vandenberg Space Force Base

Loading…

Prossimi Passaggi (prossime 24 ore)

TLE

AggiornatoSource: Space-Track

Epoca: Sep 14, 2026, 08:17 UTC

1 40610U 95015FH  26257.34533529  .00003086  00000-0  94491-3 0  9994
2 40610  98.6867 299.7501 0026129 133.0685 227.2697 14.42284798592365

Traccia DMSP 5D-2 F13 DEB in tempo reale con AllMySat

Download on the App Store